SCP
3 2 2 2 3 3 3 3 2 1 1 1 2 2 3 3 2 2 2 1 1 1 1 1 2 2 2 2 2 1 1 1 1 1 1 1 1 1
2 2 2 2 2 3 3 3 2 1 1 1 1 2 3 3 2 2 2 1 1 0 0 1 1 2 2 2 1 1 1 1 1 1 1 1 1 1
2 2 2 2 2 2 2 2 2 2 1 1 1 2 4 3 2 2 2 1 1 0 0 0 1 1 1 1 1 1 1 1 1 1 1 1 1 1
1 1 1 2 2 2 2 2 2 1 1 1 1 2 3 3 2 2 2 2 1 1 0 0 0 0 1 1 1 1 0 0 0 0 0 0 0 0
1 1 1 1 1 1 1 2 2 1 1 1 1 1 2 2 2 2 2 2 1 1 0 0 0 0 0 0 0 0 0 0 0 0 0 0 0 0
1 1 1 1 1 1 1 1 1 1 1 1 1 1 1 1 1 1 1 1 1 1 0 0 0 0 0 0 0 0 0 0 0 0 0 0 0 0
1 0 0 0 1 1 1 1 1 1 1 1 1 1 1 1 1 1 1 1 1 1 1 1 0 0 0 0 0 0 0 0 0 0 0 0 0 0
0 0 0 0 0 0 0 0 1 1 1 1 1 1 1 1 1 1 1 1 1 1 1 1 1 1 1 0 0 0 0 0 0 0 0 0 0 0
0 0 0 0 0 0 0 0 0 0 0 1 1 1 1 1 1 1 1 1 1 1 1 2 1 1 1 1 0 0 0 0 0 0 0 0 0 0
0 0 0 0 0 0 0 0 0 0 0 0 1 1 1 1 1 1 0 1 1 1 1 2 2 2 1 1 0 0 0 0 0 0 0 0 0 0
0 0 0 0 0 0 0 0 0 0 0 0 0 0 0 0 0 0 0 0 0 1 1 1 2 2 1 1 1 0 0 0 0 0 0 0 0 0
0 0 0 0 0 0 0 0 0 0 0 0 0 0 0 0 0 0 0 0 0 1 1 1 1 1 1 1 1 0 0 0 0 0 0 0 0 0
0 0 0 0 0 0 0 0 0 0 0 0 0 0 0 0 0 0 1 1 1 1 1 1 1 1 1 1 1 1 1 0 0 0 0 0 0 0
0 0 0 0 0 0 0 0 0 0 0 0 0 0 0 0 0 1 1 1 1 1 1 1 1 1 1 1 1 1 1 1 0 0 0 0 0 0
0 0 0 0 0 0 0 0 0 0 0 0 0 0 0 1 1 1 1 1 1 1 1 1 1 1 1 1 1 1 1 1 0 0 0 0 0 0
0 0 0 0 0 0 0 0 0 0 0 0 0 1 1 1 1 1 1 1 1 1 1 1 1 1 1 1 1 1 1 1 1 0 0 0 0 0
0 0 0 0 0 0 0 0 0 0 0 0 0 1 1 1 1 1 1 1 1 1 1 2 2 1 1 1 1 1 1 1 1 1 0 0 0 0
0 0 0 0 0 0 0 0 0 0 0 0 0 0 1 1 1 1 1 1 1 1 1 2 2 2 1 1 1 1 1 1 0 0 0 0 0 0
0 0 0 0 0 0 0 0 0 0 0 0 0 0 0 1 1 1 1 1 0 1 1 2 2 1 1 0 0 0 0 0 0 0 0 0 0 0
0 0 0 0 0 0 0 0 0 0 0 0 0 0 0 1 1 1 1 1 0 0 1 1 1 1 1 0 0 0 0 0 0 0 0 0 0 0
0 0 0 0 0 0 0 0 0 0 0 0 0 0 0 0 1 1 1 1 0 0 1 1 1 1 1 1 0 0 0 0 0 0 0 0 0 0
0 0 0 0 0 0 0 0 0 0 0 0 0 0 0 0 1 1 1 0 0 0 0 1 1 1 1 1 1 0 0 0 0 0 0 0 0 0
0 0 0 0 0 0 0 0 0 0 0 0 0 0 0 0 1 1 1 0 0 0 0 1 1 1 1 1 1 1 0 0 0 0 0 0 0 0
Wind_Speed
5 5 5 4 4 4 4 3 3 4 5 4 2 2 2 2 4 4 5 9 13 16 18 19 20 20 20 20 20 19 19 19 19 19 18 19 19 19
4 5 5 5 5 4 3 3 3 4 5 3 3 2 2 3 4 4 5 8 12 14 17 18 19 20 20 20 20 19 19 19 19 18 18 18 18 18
6 6 6 5 5 5 4 4 4 4 5 5 3 3 2 2 2 2 3 4 6 13 15 17 18 18 19 19 19 19 19 19 19 19 19 18 17 17
6 6 6 6 6 5 5 5 5 4 4 5 4 3 3 3 3 3 3 4 5 10 15 17 17 18 18 19 19 19 19 19 19 19 18 18 18 18
6 6 6 7 6 5 6 6 5 6 4 5 5 3 3 3 3 3 4 3 5 7 12 15 17 17 17 18 18 19 18 18 18 18 18 17 17 17
6 7 7 7 7 6 6 6 6 5 5 5 4 4 3 3 3 3 3 3 3 4 6 8 12 15 16 17 17 18 18 18 18 17 17 17 17 16
7 7 8 9 9 7 7 5 5 4 4 5 4 4 4 3 3 3 4 3 3 3 3 4 6 7 9 12 15 16 17 17 17 17 17 17 16 15
7 7 8 10 10 12 13 11 9 7 5 5 4 4 4 4 3 3 3 2 3 2 2 3 4 6 6 7 12 16 17 17 17 16 16 16 15 15
8 7 9 10 8 6 8 11 12 13 12 7 7 6 5 4 3 3 3 3 3 2 2 3 3 4 4 6 14 16 16 16 16 16 16 15 15 14
9 9 8 8 9 6 6 6 6 7 10 10 8 8 7 5 4 4 4 3 3 2 3 3 3 3 3 3 10 14 15 15 15 15 15 15 14 13
8 8 7 7 6 6 6 6 6 6 9 12 12 11 10 8 5 3 3 3 3 3 3 3 2 2 2 2 4 10 12 13 13 14 14 14 14 12
6 6 7 7 6 6 6 6 7 6 6 6 5 8 9 9 10 6 5 5 4 3 3 3 2 2 2 2 3 5 6 8 11 12 13 14 15 9
6 6 3 3 5 6 6 6 7 6 5 6 5 5 6 6 7 7 7 6 5 4 3 4 3 3 3 3 3 4 5 5 6 6 10 13 14 10
7 6 3 3 5 7 7 9 9 7 6 6 6 5 6 6 6 7 8 8 6 5 4 4 3 4 4 3 3 4 5 6 6 6 6 9 10 9
7 9 9 10 9 9 12 13 9 7 7 7 7 6 6 6 5 5 6 6 6 6 6 5 4 3 4 3 4 5 4 5 6 7 7 7 7 6
7 9 11 13 11 10 9 8 8 8 7 7 6 5 5 5 5 5 5 5 5 5 5 6 6 6 4 4 5 5 5 6 7 7 6 6 6 6
6 7 7 6 5 5 6 6 6 7 8 7 6 5 5 5 5 4 4 5 5 6 5 4 4 4 4 4 4 5 6 5 6 7 7 6 6 7
5 7 7 7 6 6 5 5 5 6 6 6 6 6 6 5 5 4 5 5 6 6 5 5 5 3 2 2 4 5 5 5 6 7 6 6 6 6
5 7 7 7 6 5 5 4 4 5 5 5 5 5 5 5 5 4 5 5 6 5 5 6 6 6 6 5 4 6 6 5 6 6 6 4 5 6
6 7 6 6 5 5 4 4 4 4 4 4 5 5 5 5 5 5 5 6 6 5 5 5 6 7 7 6 4 4 8 8 7 7 5 3 3 4
5 5 5 4 4 3 3 3 4 3 4 4 4 4 4 5 5 5 5 7 6 5 6 7 6 8 4 4 4 3 3 5 7 6 7 6 5 5
5 4 4 4 4 3 3 3 3 3 4 4 4 4 4 4 5 5 4 5 5 5 6 5 6 6 5 6 5 5 5 4 5 7 6 3 5 7
4 4 4 4 3 2 2 3 4 3 3 3 3 3 4 4 4 4 4 4 4 5 5 5 5 5 5 5 5 5 7 7 5 5 3 6 4 5
Wind_Direction
276 278 269 269 268 258 251 241 251 276 279 272 263 246 221 211 196 206 215 210 210 209 209 208 206 204 203 203 204 205 206 207 207 207 208 210 212 216
265 264 272 270 273 271 261 249 236 247 267 279 279 279 277 247 204 213 215 209 209 210 210 209 207 204 203 203 203 204 206 205 205 205 206 208 210 212
276 271 267 267 269 275 272 260 246 236 253 268 267 270 259 265 227 225 215 207 209 211 209 209 207 205 205 205 205 205 205 206 205 205 206 208 208 210
285 281 277 273 262 262 267 268 261 246 243 259 266 266 261 251 232 232 230 229 218 213 209 209 207 205 205 205 205 205 204 204 204 205 205 207 209 211
286 284 281 279 274 266 263 263 264 263 248 249 254 249 247 241 230 234 233 238 237 219 209 208 207 205 204 205 205 204 203 203 204 205 205 207 209 210
285 283 279 276 272 269 265 258 260 263 263 258 255 251 245 243 226 223 236 230 241 231 216 205 205 204 204 204 204 203 202 202 203 204 204 205 207 208
290 285 279 275 271 262 264 264 269 266 264 258 253 245 242 235 226 221 230 230 233 222 206 195 188 197 203 205 204 203 201 201 202 202 203 203 203 204
289 285 283 273 261 249 245 245 244 250 257 260 260 252 251 248 238 230 229 229 236 211 193 209 190 194 192 195 197 196 197 197 197 197 198 198 199 199
280 280 282 284 295 275 255 244 241 240 235 241 255 256 256 250 242 251 248 239 242 223 193 222 204 206 198 198 186 187 190 193 192 192 192 192 192 193
271 268 267 271 279 284 285 273 258 247 233 228 234 243 246 243 233 228 239 251 250 239 205 224 212 206 190 167 175 179 183 185 185 184 183 182 182 183
273 273 270 269 266 266 267 267 267 266 261 243 225 229 232 229 216 211 224 227 243 237 215 208 208 181 168 153 158 173 175 177 179 178 176 174 173 171
286 279 269 267 261 253 256 261 262 265 277 285 250 239 232 224 213 212 217 220 226 232 204 188 195 168 164 146 148 158 162 168 172 175 174 171 167 169
294 296 295 290 254 249 248 255 260 273 280 272 263 245 231 222 216 213 214 220 219 227 199 177 188 187 168 149 153 167 166 158 162 170 176 175 177 179
284 288 293 276 267 263 254 252 258 264 262 260 253 243 231 225 220 216 213 216 218 221 208 187 188 185 171 162 159 161 166 162 160 163 168 174 184 194
275 289 294 277 268 259 247 246 247 244 243 247 247 242 231 226 218 213 218 217 219 225 214 200 193 187 182 177 161 160 163 168 166 163 165 172 177 177
270 284 278 266 255 255 260 236 226 232 236 242 246 246 240 224 216 208 209 206 211 226 220 201 197 191 192 189 170 168 164 167 170 169 165 169 174 181
317 291 281 278 267 250 242 240 232 225 230 235 239 243 240 230 222 207 203 205 210 211 208 199 196 192 189 176 177 177 169 166 169 167 165 171 178 182
288 277 278 276 273 268 258 248 238 235 234 233 233 230 227 223 221 206 199 208 213 211 201 187 176 170 176 219 187 175 174 171 166 167 167 169 178 182
254 263 267 269 272 271 260 253 247 240 232 229 232 226 221 221 220 213 205 206 211 210 199 185 180 181 190 197 197 189 175 166 165 170 175 170 175 175
248 260 267 270 271 272 268 259 255 251 238 234 233 228 218 215 218 214 204 203 204 202 197 190 190 192 198 188 172 181 185 173 170 173 168 148 118 116
279 274 274 276 273 272 270 262 256 252 247 240 235 228 221 215 214 213 206 200 198 199 199 198 199 189 178 155 157 159 165 179 175 168 165 160 157 160
293 300 301 292 282 277 272 265 258 253 251 244 232 225 223 219 215 210 201 194 195 199 205 193 174 174 177 180 180 166 156 136 108 103 97 122 165 177
298 301 304 306 305 296 282 266 259 253 246 242 237 229 218 213 210 203 198 196 195 198 195 185 174 176 182 180 176 165 158 155 146 130 79 33 68 111